[[{"header":{"parameterUnit":"m.s-1","parameterCategory":1,"la1":30.2991,"la2":30.254,"lo1":-89.0895,"lo2":-89.0444,"dy":0.0017,"dx":0.0017,"nx":28,"ny":28,"refTime":"2025-03-22T21:00:00:Z","depth":0,"parameterNumber":2,"parameterNumberName":"U-component_of_WINDS"},"data":[0,0,0,0,0,0,0,0,0,0,0,0,0,0,0,0,0,0,0,0,0,0,0,0,0,0,0,0,0,0,0,0,0,0,0,0,0,0,0,0,0,0,0,0,0,0,0,0,0,0,0,0,0,0,0,0,0,0,1.1777,1.1777,0,1.1801,1.1801,1.1801,1.18,1.18,1.1799,1.1799,1.1828,1.1829,1.183,0,0,0,0,0,0,0,0,0,0,0,0,0,1.1735,1.1735,1.1777,1.1777,1.1777,1.1801,1.1801,1.1801,1.18,1.18,1.1799,1.1799,1.1828,1.1829,1.183,0,0,0,0,0,0,0,0,0,0,0,0,0,1.1755,1.1736,1.1777,1.178,1.178,1.1801,1.1801,1.1802,1.18,1.18,1.1799,1.1799,1.1827,1.1829,1.1831,1.1852,0,0,1.1836,1.1836,0,0,0,0,0,0,0,0,1.1754,1.1757,1.1779,1.1779,1.178,1.1797,1.1797,1.1819,1.18,1.1793,1.1799,1.1798,1.1818,1.1821,1.1827,1.1853,1.1854,1.1836,1.1837,1.1838,1.1838,0,0,0,0,0,0,0,1.1753,1.1756,1.1787,1.1779,1.178,1.1781,1.1783,1.1801,1.1809,1.1793,1.1793,1.1796,1.1819,1.1825,1.1827,1.1855,1.1836,1.1837,1.1838,1.1839,1.19,1.1901,0,0,0,0,0,0,1.175,1.1755,1.1786,1.1787,1.1765,1.1782,1.1785,1.1792,1.1808,1.181,1.1796,1.1796,1.1822,1.1825,1.1828,1.1854,1.1838,1.1839,1.184,1.19,1.1901,1.1901,0,0,0,0,0,0,1.1749,1.1753,1.1785,1.1771,1.1775,1.1783,1.1792,1.1793,1.1799,1.181,1.1812,1.1801,1.1822,1.1826,1.1846,1.1855,1.184,1.1841,1.1899,1.19,1.1901,1.1906,0,0,0,0,0,0,1.1748,1.1753,1.1759,1.1771,1.1776,1.18,1.1792,1.1794,1.1801,1.1801,1.1815,1.1817,1.1822,1.1843,1.1847,1.1857,1.1843,1.1898,1.1899,1.1901,1.1905,1.1907,1.1909,0,0,0,0,0,1.1746,1.1761,1.176,1.1764,1.1784,1.1801,1.1804,1.1807,1.1802,1.181,1.1817,1.1817,1.1853,1.1845,1.185,1.186,1.1898,1.1899,1.19,1.1904,1.1906,1.1908,0,0,0,0,0,0,1.1752,1.1762,1.1761,1.178,1.1789,1.18,1.181,1.181,1.1822,1.1821,1.1827,1.183,1.185,1.1857,1.1848,1.1882,1.1875,1.1878,1.1876,1.1879,1.188,1.1878,1.1844,0,0,0,0,0,1.1754,1.1765,1.1775,1.179,1.1795,1.1802,1.1809,1.1811,1.1822,1.1826,1.1835,1.1847,1.1861,1.187,1.1884,1.1906,1.191,1.1916,1.1918,1.1919,1.1921,1.1934,1.1937,1.1906,1.1906,1.1906,0,0,1.1761,1.1769,1.1775,1.1791,1.1799,1.1811,1.1805,1.1819,1.1828,1.1829,1.1847,1.1854,1.1868,1.1889,1.1899,1.1896,1.1931,1.1921,1.1922,1.1923,1.1936,1.1939,1.1941,1.1907,1.1907,1.1907,0,0,1.178,1.1786,1.1799,1.1807,1.1818,1.1823,1.1826,1.1837,1.1842,1.186,1.1861,1.1873,1.1898,1.1907,1.1915,1.1938,1.1939,1.1943,1.1952,1.1965,1.1967,1.1969,1.1978,1.1981,1.1945,1.1945,1.1945,0,1.1787,1.1804,1.1807,1.182,1.1828,1.1827,1.1842,1.1849,1.1865,1.1871,1.1867,1.1897,1.1907,1.193,1.1935,1.1942,1.1947,1.1941,1.1966,1.1969,1.1971,1.1979,1.1982,1.1945,1.1945,1.1945,1.1945,0,1.1813,1.1825,1.1835,1.1849,1.1857,1.1871,1.1877,1.1886,1.1888,1.1893,1.1913,1.1923,1.1939,1.1945,1.1948,1.1969,1.1967,1.1965,1.1958,1.1974,1.1982,1.1985,1.1946,1.1946,1.1946,1.1945,0,0,1.1835,1.185,1.1853,1.1859,1.1872,1.1882,1.1897,1.1911,1.1918,1.193,1.1943,1.1963,1.1961,1.197,1.1974,1.1985,1.2003,1.1981,1.1982,1.1985,1.2028,1.203,1.2033,1.2003,1.2004,1.2004,1.2027,0,1.1855,1.1879,1.1881,1.1903,1.1915,1.1915,1.1928,1.1938,1.1944,1.1956,1.1963,1.1977,1.1973,1.1979,1.199,1.1998,1.2011,1.1997,1.2016,1.2017,1.2012,1.2037,1.2039,1.2059,1.203,1.203,1.2031,0,1.1881,1.1891,1.1914,1.1925,1.193,1.1941,1.1954,1.1966,1.1977,1.1981,1.1991,1.1993,1.201,1.2003,1.2027,1.2016,1.2025,1.2031,1.2032,1.2033,1.2025,1.204,1.2066,1.2069,1.2036,1.2035,1.2035,0,1.1895,1.1914,1.193,1.1936,1.1949,1.1957,1.1963,1.1974,1.1983,1.1995,1.2001,1.2016,1.2024,1.2037,1.2043,1.2037,1.2067,1.206,1.2071,1.2071,1.2077,1.2077,1.2106,1.2083,1.2083,1.2083,1.2083,0,1.1916,1.193,1.1937,1.1947,1.1963,1.1967,1.1983,1.1989,1.1999,1.2011,1.2013,1.2025,1.2033,1.2047,1.2053,1.2072,1.2076,1.208,1.2081,1.208,1.2079,1.2085,1.2084,1.2084,1.2084,1.2084,1.2083,0,1.1934,1.1939,1.1956,1.1967,1.197,1.1982,1.1992,1.2002,1.2008,1.2024,1.2028,1.2037,1.2053,1.2061,1.2082,1.2086,1.2107,1.2108,1.2103,1.2103,1.2114,1.2113,1.2148,1.2153,1.2127,1.2127,1.2127,0,1.1947,1.1958,1.197,1.1977,1.1983,1.1995,1.2004,1.2009,1.2018,1.2032,1.2041,1.2057,1.2069,1.2095,1.2105,1.2121,1.2122,1.2133,1.2125,1.2123,1.2123,1.2122,1.2123,1.2135,1.2135,1.2135,1.2136,0,1.1971,1.1972,1.1983,1.1996,1.2005,1.2015,1.2025,1.2032,1.2039,1.2049,1.2064,1.2074,1.2095,1.2111,1.2127,1.2136,1.2137,1.2138,1.2142,1.214,1.2136,1.2138,1.2107,1.2137,1.2137,1.2137,1.2137,1.2137,1.1987,1.1996,1.2005,1.2018,1.2026,1.2035,1.2045,1.2052,1.2065,1.208,1.2083,1.21,1.2113,1.2135,1.2144,1.2158,1.2156,1.2161,1.2162,1.2163,1.2164,1.2134,1.2161,1.2161,1.2161,1.2161,1.2161,0,1.201,1.2016,1.2027,1.2041,1.2051,1.205,1.2061,1.207,1.2084,1.2095,1.2107,1.2126,1.2141,1.2153,1.2169,1.2178,1.218,1.2183,1.2182,1.2184,1.2165,1.216,1.2181,1.2181,1.2181,1.2181,1.2181,1.2181,1.2023,1.2039,1.2042,1.2062,1.2069,1.2083,1.209,1.2099,1.2108,1.2128,1.214,1.2147,1.2158,1.2175,1.219,1.2193,1.22,1.2202,1.2206,1.2187,1.2185,1.2183,1.2179,1.2204,1.2204,1.2224,1.2224,1.2224]},{"header":{"parameterUnit":"m.s-1","parameterCategory":1,"la1":30.2991,"la2":30.254,"lo1":-89.0895,"lo2":-89.0444,"dy":0.0017,"dx":0.0017,"nx":28,"ny":28,"refTime":"2025-03-22T21:00:00:Z","depth":0,"parameterNumber":3,"parameterNumberName":"V-component_of_WINDS"},"data":[0,0,0,0,0,0,0,0,0,0,0,0,0,0,0,0,0,0,0,0,0,0,0,0,0,0,0,0,0,0,0,0,0,0,0,0,0,0,0,0,0,0,0,0,0,0,0,0,0,0,0,0,0,0,0,0,0,0,2.0627,2.0627,0,2.0638,2.0638,2.0638,2.0641,2.0641,2.0641,2.0641,2.0651,2.0651,2.0652,0,0,0,0,0,0,0,0,0,0,0,0,0,2.0608,2.0608,2.0627,2.0627,2.0627,2.0638,2.0638,2.0638,2.0641,2.0641,2.0641,2.0641,2.0651,2.0651,2.0652,0,0,0,0,0,0,0,0,0,0,0,0,0,2.0617,2.0608,2.0627,2.063,2.0631,2.0638,2.0638,2.0638,2.0641,2.0641,2.0641,2.0641,2.0651,2.0651,2.0652,2.0656,0,0,2.0653,2.0653,0,0,0,0,0,0,0,0,2.0616,2.0618,2.0629,2.063,2.063,2.0638,2.0635,2.0644,2.0641,2.0637,2.0641,2.0641,2.0647,2.0648,2.065,2.0657,2.0657,2.0653,2.0654,2.0654,2.0654,0,0,0,0,0,0,0,2.0616,2.0617,2.0631,2.063,2.063,2.0631,2.0632,2.0637,2.0642,2.0637,2.0638,2.0639,2.0647,2.0649,2.065,2.0657,2.0653,2.0654,2.0654,2.0654,2.0668,2.0669,0,0,0,0,0,0,2.0615,2.0617,2.0631,2.0632,2.0623,2.0631,2.0632,2.0636,2.0642,2.0643,2.0639,2.0639,2.0649,2.0649,2.065,2.0656,2.0654,2.0654,2.0654,2.0668,2.0668,2.0669,0,0,0,0,0,0,2.0614,2.0616,2.063,2.0624,2.0626,2.0631,2.0635,2.0636,2.0638,2.0643,2.0644,2.0641,2.0648,2.065,2.0655,2.0656,2.0654,2.0655,2.0668,2.0668,2.0668,2.0668,0,0,0,0,0,0,2.0614,2.0616,2.0618,2.0624,2.0626,2.0635,2.0635,2.0636,2.0639,2.0639,2.0645,2.0646,2.0649,2.0654,2.0655,2.0657,2.0655,2.0668,2.0668,2.0668,2.0667,2.0668,2.0668,0,0,0,0,0,2.0613,2.0617,2.0618,2.062,2.0629,2.0635,2.0636,2.064,2.0639,2.0641,2.0645,2.0646,2.0656,2.0655,2.0656,2.0658,2.0668,2.0668,2.0668,2.0667,2.0668,2.0668,0,0,0,0,0,0,2.0611,2.0618,2.0619,2.0625,2.063,2.0636,2.0638,2.064,2.0644,2.0644,2.0648,2.0649,2.0654,2.0656,2.0655,2.0663,2.0662,2.0663,2.0661,2.0661,2.0661,2.066,2.0656,0,0,0,0,0,2.0611,2.0615,2.0621,2.0626,2.0628,2.0633,2.0636,2.0638,2.0642,2.0644,2.0648,2.0652,2.0656,2.0659,2.0663,2.0668,2.0669,2.067,2.067,2.067,2.067,2.0673,2.0673,2.0669,2.0669,2.0669,0,0,2.0611,2.0616,2.0618,2.0626,2.063,2.0634,2.0635,2.0639,2.0642,2.0645,2.065,2.0653,2.0657,2.0662,2.0665,2.0665,2.0672,2.067,2.067,2.0671,2.0673,2.0674,2.0674,2.0669,2.0669,2.0669,0,0,2.0614,2.0618,2.0623,2.0626,2.0632,2.0635,2.0636,2.0642,2.0644,2.0649,2.0651,2.0654,2.0662,2.0665,2.0667,2.0671,2.0672,2.0672,2.0673,2.0676,2.0676,2.0676,2.0678,2.0678,2.0673,2.0673,2.0673,0,2.0614,2.0621,2.0625,2.0629,2.0632,2.0635,2.0639,2.0642,2.0649,2.0651,2.0651,2.0659,2.0663,2.0669,2.067,2.0671,2.0673,2.0672,2.0676,2.0676,2.0677,2.0678,2.0678,2.0673,2.0673,2.0673,2.0673,0,2.062,2.0625,2.0628,2.0634,2.0638,2.0642,2.0646,2.0649,2.0651,2.0654,2.0659,2.0663,2.0668,2.0669,2.0671,2.0675,2.0675,2.0675,2.0675,2.0677,2.0678,2.0679,2.0673,2.0673,2.0673,2.0673,0,0,2.0622,2.0631,2.0632,2.0634,2.0641,2.0644,2.0648,2.0654,2.0656,2.066,2.0664,2.067,2.067,2.0673,2.0675,2.0677,2.068,2.0677,2.0677,2.0677,2.0684,2.0684,2.0685,2.068,2.068,2.068,2.0684,0,2.0626,2.0634,2.0638,2.0644,2.0648,2.0651,2.0654,2.0658,2.0661,2.0665,2.0667,2.0672,2.0672,2.0673,2.0676,2.0679,2.0681,2.0679,2.0683,2.0683,2.0682,2.0685,2.0685,2.0689,2.0685,2.0685,2.0685,0,2.0632,2.0636,2.0643,2.0649,2.0651,2.0654,2.0659,2.0662,2.0667,2.0669,2.0672,2.0673,2.0678,2.0677,2.0682,2.0681,2.0683,2.0684,2.0685,2.0685,2.0684,2.0686,2.069,2.069,2.0686,2.0685,2.0685,0,2.0632,2.064,2.0645,2.0648,2.0654,2.0657,2.0659,2.0664,2.0666,2.067,2.0672,2.0677,2.0679,2.0682,2.0685,2.0684,2.069,2.069,2.0691,2.0691,2.0693,2.0693,2.0697,2.0694,2.0694,2.0694,2.0694,0,2.0636,2.064,2.0646,2.0649,2.0654,2.0657,2.0662,2.0664,2.0668,2.0672,2.0674,2.0677,2.068,2.0684,2.0686,2.069,2.0691,2.0692,2.0693,2.0692,2.0692,2.0694,2.0694,2.0694,2.0694,2.0694,2.0694,0,2.0638,2.0642,2.0647,2.0653,2.0655,2.0658,2.0663,2.0666,2.0668,2.0673,2.0674,2.0678,2.0682,2.0685,2.069,2.0692,2.0696,2.0697,2.0695,2.0695,2.0697,2.0697,2.0702,2.0703,2.07,2.07,2.07,0,2.064,2.0643,2.065,2.0652,2.0655,2.0659,2.0662,2.0666,2.0669,2.0674,2.0676,2.068,2.0684,2.0691,2.0694,2.0698,2.0698,2.07,2.0699,2.0698,2.0698,2.0698,2.0698,2.07,2.07,2.07,2.07,0,2.0644,2.0646,2.065,2.0655,2.0658,2.0662,2.0666,2.0668,2.0672,2.0675,2.068,2.0683,2.0688,2.0692,2.0697,2.0699,2.07,2.07,2.0701,2.07,2.0699,2.07,2.0696,2.07,2.07,2.07,2.07,2.07,2.0646,2.0649,2.0654,2.0658,2.0662,2.0665,2.0669,2.0672,2.0676,2.0681,2.0682,2.0687,2.0691,2.0697,2.0699,2.0702,2.0702,2.0703,2.0703,2.0704,2.0704,2.0699,2.0703,2.0703,2.0703,2.0703,2.0703,0,2.065,2.0653,2.0657,2.0663,2.0666,2.0667,2.0672,2.0675,2.0679,2.0682,2.0686,2.0691,2.0695,2.0699,2.0703,2.0705,2.0705,2.0706,2.0706,2.0706,2.0703,2.0702,2.0705,2.0705,2.0705,2.0705,2.0705,2.0705,2.0652,2.0657,2.066,2.0666,2.0669,2.0674,2.0676,2.068,2.0683,2.0688,2.0692,2.0694,2.0698,2.0702,2.0706,2.0706,2.0708,2.0708,2.0709,2.0706,2.0706,2.0706,2.0705,2.0708,2.0708,2.0711,2.0711,2.0711]}]]